This demonstration page uses our WeatherBlox Daily Observations layout. Learn more.

Left ArrowRight Arrow

39.01783, -85.05884

Hourly Observations for March 20, 2018

Temp ( °F °C ) Dew Point ( °F °C ) Humidity (%) Winds ( mph kmh ) Pressure ( in mb ) Visibility ( mi km ) Precip ( " mm )
12:52 am 00:52 Mostly Cloudy 41 5 33 0.6 73 73 NE 17 28 29.61 1003 10 16 N/A
1:52 am 01:52 Cloudy 39 3.9 31 -0.6 73 73 NNE 18 30 29.60 1002 10 16 N/A
2:52 am 02:52 Cloudy with Light Rain 36 2.2 29 -1.7 76 76 NNE 14 22 29.59 1002 10 16 0.01 0.25
3:52 am 03:52 Cloudy with Light Rain 35 1.7 28 -2.2 76 76 N 17 28 29.59 1002 9 14 0.01 0.25
4:52 am 04:52 Cloudy with Light Rain 33 0.6 29 -1.7 85 85 N 12 19 29.60 1003 10 16 0.02 0.51
5:52 am 05:52 Cloudy with Light Freezing Rain 33 0.6 31 -0.6 92 92 N 12 19 29.60 1003 6 10 0.02 0.51
6:38 am 06:38 Cloudy with Light Rain 33 0.6 30 -1.1 89 89 N 15 24 29.62 1003 9 14 0.04 1.02
6:52 am 06:52 Cloudy with Light Rain 33 0.6 29 -1.7 85 85 N 17 28 29.60 1002 8 13 0.04 1.02
7:52 am 07:52 Cloudy with Light Rain 32 undefined 29 -1.7 88 88 N 10 17 29.62 1003 8 13 N/A
8:26 am 08:26 Cloudy with Light Freezing Rain 33 0.6 30 -1.1 89 89 N 10 17 29.65 1004 7 11 N/A
8:40 am 08:40 Cloudy with Light Rain 33 0.6 30 -1.1 89 89 N 12 19 29.65 1004 10 16 N/A
8:52 am 08:52 Cloudy 33 0.6 30 -1.1 89 89 NNE 13 20 29.62 1003 10 16 N/A
9:52 am 09:52 Cloudy 33 0.6 29 -1.7 85 85 NNE 13 20 29.63 1004 10 16 N/A
10:52 am 10:52 Cloudy with Light Rain 36 2.2 30 -1.1 79 79 NNE 14 22 29.64 1004 10 16 N/A
11:52 am 11:52 Cloudy 36 2.2 31 -0.6 82 82 NNE 16 26 29.65 1004 10 16 N/A
12:52 pm 12:52 Cloudy 35 1.7 30 -1.1 82 82 N 9 15 29.65 1004 10 16 N/A
1:52 pm 13:52 Cloudy 38 3.3 31 -0.6 76 76 NNE 14 22 29.64 1004 10 16 N/A
2:52 pm 14:52 Cloudy 37 2.8 33 0.6 86 86 NNE 16 26 29.61 1003 7 11 N/A
3:08 pm 15:08 Cloudy with Mist and Fog 36 2.2 33 0.6 89 89 NNE 14 22 29.65 1004 6 10 N/A
3:52 pm 15:52 Cloudy 37 2.8 34 1.1 89 89 NNW 7 11 29.62 1003 10 16 N/A
4:15 pm 16:15 Cloudy 37 2.8 34 1.1 89 89 N 7 11 29.65 1004 10 16 N/A
4:52 pm 16:52 Cloudy 37 2.8 33 0.6 86 86 NNW 7 11 29.61 1003 10 16 N/A
5:13 pm 17:13 Cloudy 37 2.8 34 1.1 89 89 NNW 6 9 29.62 1003 9 14 N/A
5:52 pm 17:52 Cloudy 37 2.8 33 0.6 86 86 NW 8 13 29.60 1002 10 16 N/A
6:37 pm 18:37 Cloudy 37 2.8 33 0.6 86 86 WNW 5 7 29.65 1004 10 16 N/A
6:52 pm 18:52 Cloudy with Light Rain 38 3.3 33 0.6 83 83 NW 7 11 29.62 1003 10 16 N/A
7:44 pm 19:44 Cloudy with Light Rain 37 2.8 35 1.7 93 93 NE 14 22 29.65 1004 5 8 0.01 0.25
7:52 pm 19:52 Cloudy with Light Rain 36 2.2 35 1.7 97 97 NE 15 24 29.62 1003 3 4 0.01 0.25
8:06 pm 20:06 Cloudy with Light Snow 36 2.2 35 1.7 97 97 NE 12 19 29.65 1004 3 4 0.01 0.25
8:52 pm 20:52 Cloudy with Light Snow 34 1.1 34 1.1 100 100 N 6 9 29.64 1004 3 4 0.04 1.02
9:20 pm 21:20 Cloudy with Light Snow 33 0.6 33 0.6 100 100 NNW 7 11 29.68 1005 2 3 0.02 0.51
9:42 pm 21:42 Cloudy with Light Snow 33 0.6 33 0.6 100 100 NNW 8 13 29.68 1005 2 3 0.03 0.76
9:52 pm 21:52 Cloudy with Light Snow 33 0.6 33 0.6 100 100 N 7 11 29.66 1004 1 2 0.03 0.76
10:15 pm 22:15 Cloudy with Light Snow 33 0.6 33 0.6 100 100 NNW 15 24 29.68 1005 1 2 0.01 0.25
10:52 pm 22:52 Cloudy with Light Snow 33 0.6 32 undefined 96 96 N 15 24 29.66 1005 4 6 0.02 0.51
11:27 pm 23:27 Cloudy with Light Snow 32 undefined 32 undefined 100 100 N 13 20 29.68 1005 2 3 0.01 0.25
11:47 pm 23:47 Cloudy with Light Snow 32 undefined 32 undefined 100 100 N 18 30 29.68 1005 1 2 0.01 0.25
11:52 pm 23:52 Cloudy with Light Snow 32 undefined 32 undefined 100 100 N 16 26 29.67 1005 1 2 0.01 0.25

Powered by AerisWeather